This is the latest recevied weather packets stored in our database for station/object KQ4NAL. If no packets are shown the sender has not sent any weather packets the latest 10 day(s).
| Time | Temp. | Humidity | Pressure | Rain* | Wind** | Luminosity | Snow |
|---|---|---|---|---|---|---|---|
| 1777559649 | 9.44° C | 73% | 1018.5 hPa | 0 mm | - | 337 W/m² | - |
| 1777559347 | 9.44° C | 73% | 1018.3 hPa | 0 mm | - | 186 W/m² | - |
| 1777559042 | 10° C | 72% | 1018.2 hPa | 0 mm | - | 435 W/m² | - |
| 1777558738 | 9.44° C | 73% | 1018.3 hPa | 0 mm | - | 704 W/m² | - |
| 1777558434 | 9.44° C | 73% | 1018.1 hPa | 0 mm | - | 692 W/m² | - |
| 1777558130 | 9.44° C | 74% | 1018.4 hPa | 0 mm | - | 658 W/m² | - |
| 1777557827 | 9.44° C | 74% | 1018.2 hPa | 0 mm | - | 659 W/m² | - |
| 1777557524 | 9.44° C | 74% | 1018.1 hPa | 0 mm | - | 501 W/m² | - |
| 1777557221 | 8.33° C | 77% | 1018.4 hPa | 0 mm | - | 599 W/m² | - |
| 1777556916 | 8.33° C | 77% | 1018.3 hPa | 0 mm | - | 306 W/m² | - |
| 1777556612 | 8.33° C | 77% | 1018.6 hPa | 0 mm | - | 255 W/m² | - |
| 1777556307 | 8.33° C | 77% | 1018.3 hPa | 0 mm | - | 135 W/m² | - |
| 1777556003 | 8.33° C | 77% | 1018.2 hPa | 0 mm | - | 518 W/m² | - |
| 1777555698 | 8.33° C | 78% | 1018.1 hPa | 0 mm | - | 147 W/m² | - |
| 1777555395 | 8.33° C | 77% | 1018.2 hPa | 0 mm | - | 123 W/m² | - |
| 1777555091 | 8.33° C | 78% | 1018.1 hPa | 0 mm | - | 356 W/m² | - |
| 1777554789 | 7.78° C | 79% | 1017.9 hPa | 0 mm | - | 359 W/m² | - |
| 1777554486 | 7.78° C | 79% | 1017.7 hPa | 0 mm | - | 85 W/m² | - |
| 1777554182 | 7.78° C | 79% | 1017.6 hPa | 0 mm | - | 315 W/m² | - |
| 1777553879 | 7.78° C | 79% | 1017.6 hPa | 0 mm | - | 292 W/m² | - |
| 1777553575 | 7.78° C | 79% | 1017.6 hPa | 0 mm | - | 302 W/m² | - |
| 1777553271 | 8.33° C | 79% | 1017.8 hPa | 0 mm | - | 317 W/m² | - |
| 1777552968 | 7.78° C | 80% | 1017.4 hPa | 0 mm | - | 350 W/m² | - |
| 1777552668 | 7.78° C | 80% | 1017.6 hPa | 0 mm | - | 150 W/m² | - |
| 1777552365 | 7.78° C | 81% | 1017.3 hPa | 0 mm | - | 261 W/m² | - |
* Rain latest hour (hover to see other rain measurements)
** Current wind speed in m/s (hover to see current wind gust speed)